Wind_Speed
4 5 6 6 7 7 7 7 7 8 8 8 8 9 10 10 11 11 11 12 12 13 12 13 13 13 14 14 14 14 14 14 14 14 14 14 13 13 13 13 13 13 13
5 5 5 6 7 8 7 8 9 9 9 9 9 10 10 11 11 12 12 13 13 14 14 14 14 14 15 15 15 15 15 15 15 15 15 15 15 14 14 14 14 14 14
6 6 6 6 8 9 9 9 10 10 11 11 11 12 12 13 13 13 14 14 14 14 15 15 15 16 16 16 16 16 16 16 16 16 16 16 16 16 16 16 16 16 16
6 7 7 7 8 9 10 10 10 11 12 12 12 13 13 14 14 14 15 15 15 15 16 16 16 17 17 17 17 17 17 17 17 16 17 17 17 17 17 17 17 17 17
7 8 9 9 9 10 11 11 11 12 12 13 13 14 14 15 15 15 15 16 16 17 17 18 18 18 18 18 18 18 18 18 18 17 18 18 18 18 18 17 18 18 17
9 10 10 10 10 11 11 11 12 12 12 13 14 14 15 16 16 16 17 17 18 19 19 19 19 19 20 20 20 20 19 19 19 19 19 19 19 20 19 19 18 18 18
10 10 10 11 11 11 11 12 12 13 13 14 14 15 15 16 17 17 18 18 19 20 20 20 21 21 21 22 22 22 21 21 21 20 20 20 20 21 21 20 20 20 20
10 10 11 11 11 11 12 12 12 13 14 14 15 16 16 17 18 18 19 19 20 21 21 21 22 23 23 24 24 23 23 22 21 21 21 22 22 22 22 22 22 21 21
12 11 11 12 12 12 13 13 14 14 15 16 16 16 17 18 19 19 20 20 20 21 22 23 23 23 24 25 25 24 24 23 22 22 23 23 23 23 23 23 23 23 23
12 12 13 13 13 14 14 14 15 16 17 17 17 17 18 19 20 20 20 21 21 22 23 23 23 24 24 25 25 25 25 24 24 24 24 24 24 24 24 24 23 24 24
13 14 14 14 15 14 14 15 16 17 17 17 17 18 19 19 20 20 21 21 22 22 23 23 24 24 25 25 25 26 26 25 25 26 25 24 24 24 25 24 24 24 24
14 14 14 14 14 15 16 16 17 18 18 17 18 19 20 20 21 21 21 22 22 23 23 24 25 26 26 26 26 26 26 26 25 26 26 26 25 25 25 24 24 25 25
14 14 15 15 15 16 17 17 18 18 18 18 19 20 20 21 21 22 22 22 23 23 24 25 26 27 27 27 27 27 27 27 26 26 26 26 26 26 26 25 25 26 26
14 15 15 15 16 17 17 18 18 19 19 19 20 21 21 21 22 23 24 24 24 25 25 26 27 27 28 28 27 27 27 27 27 27 26 26 26 26 26 27 27 26 27
15 15 16 17 17 18 18 18 18 19 20 20 21 21 22 22 22 24 24 25 26 26 27 27 27 28 29 29 29 28 28 27 28 28 28 27 26 26 27 28 28 27 28
16 16 16 17 18 18 18 19 19 20 20 21 21 21 22 22 23 24 25 26 26 27 28 28 29 30 30 30 29 29 28 28 29 29 28 28 27 27 27 28 28 28 29
17 17 18 18 18 18 19 19 20 20 21 22 21 21 22 23 24 24 25 26 26 27 28 29 31 31 31 31 30 29 27 28 28 28 28 28 28 28 28 29 29 29 30
18 18 19 19 18 18 19 19 19 20 22 22 22 23 23 24 25 25 25 26 27 27 29 29 30 31 31 31 31 31 30 29 28 28 28 28 29 29 29 29 30 30 30
19 19 20 19 19 19 19 19 20 20 22 23 23 23 24 24 25 26 26 27 28 28 29 29 29 30 30 31 31 31 31 30 30 29 29 30 30 31 30 30 30 30 30
21 21 21 21 20 19 18 19 21 22 22 22 23 24 24 25 25 26 27 27 28 29 29 29 29 30 30 30 29 29 30 30 30 30 30 30 30 31 31 31 30 29 30
22 22 23 21 20 18 19 20 22 22 22 23 23 24 24 25 26 27 27 28 28 29 29 29 29 28 28 27 27 28 28 29 29 29 30 30 30 30 30 30 31 30 30
22 24 23 21 20 20 21 21 22 23 23 24 24 25 25 26 27 27 27 28 28 29 29 29 28 27 26 26 26 26 26 28 28 27 27 28 29 29 29 30 30 30 30
23 23 22 20 21 22 23 23 23 24 23 24 25 25 25 25 26 26 27 27 28 28 28 27 27 27 26 26 26 26 26 26 25 25 26 27 27 28 29 29 29 30 31
24 23 21 21 22 22 22 23 23 24 24 24 24 25 26 26 26 27 27 28 28 28 27 26 25 25 26 26 26 26 26 25 25 24 25 26 26 26 27 27 29 30 30
23 22 22 23 24 23 23 23 23 24 23 24 24 25 26 26 26 26 26 27 27 26 26 25 24 24 25 24 25 25 25 24 24 23 23 24 25 26 26 27 27 28 29
23 23 24 24 24 23 23 23 23 24 24 24 25 25 25 25 25 25 25 25 25 24 24 24 24 24 23 23 24 24 24 24 24 23 23 23 24 26 26 26 27 28 29
Wind_Direction
344 335 331 327 325 324 323 321 320 321 320 320 320 318 319 318 317 317 315 313 312 311 309 307 306 305 305 303 301 298 295 292 289 284 281 277 272 268 264 260 256 254 252
333 326 318 316 318 320 318 318 317 316 316 315 314 314 313 312 312 312 311 308 307 305 304 303 302 302 301 299 298 298 296 291 288 284 281 276 270 266 263 259 257 254 252
322 321 315 315 317 317 314 310 313 313 311 309 308 308 308 307 306 307 305 304 303 300 300 300 298 298 298 296 295 294 293 292 289 286 281 276 270 266 263 260 257 255 254
309 311 310 309 310 310 309 306 307 307 305 304 305 305 306 305 303 302 302 301 300 299 297 296 295 297 297 296 294 292 291 290 286 283 280 276 270 267 264 261 258 256 254
303 304 308 305 306 307 304 302 303 301 300 301 303 304 303 303 300 299 298 297 297 297 296 295 295 294 294 293 293 292 290 288 284 282 279 277 272 266 264 261 259 258 256
297 301 303 301 302 304 303 302 301 301 301 303 303 302 301 300 299 298 297 296 296 295 295 295 294 293 292 290 290 291 289 286 283 282 280 277 273 269 266 264 262 259 257
297 299 301 299 299 299 300 301 301 301 301 303 303 302 301 299 296 296 296 295 294 293 292 292 291 290 289 289 288 288 287 287 283 280 279 277 274 271 270 266 263 260 260
299 299 300 299 297 296 298 301 302 301 300 300 300 300 300 300 297 293 293 293 293 292 291 290 288 288 287 287 287 285 284 283 282 280 278 276 273 271 269 266 262 261 260
299 299 299 297 295 294 293 295 299 299 298 298 298 296 297 296 295 292 291 293 291 291 290 289 288 287 287 286 286 286 284 281 282 281 278 274 272 271 269 266 263 260 260
300 299 299 300 297 299 294 294 298 299 297 295 295 294 296 296 296 293 288 290 290 291 290 290 290 288 287 286 285 284 283 280 279 280 278 274 272 271 268 266 265 262 260
298 299 299 301 300 295 292 296 299 299 296 295 296 297 295 295 295 294 290 288 288 288 287 287 288 288 288 287 286 284 283 282 280 280 278 274 272 270 267 265 265 264 261
300 300 297 297 297 295 296 297 297 298 295 293 295 295 293 293 292 290 288 287 286 286 287 287 287 287 287 287 286 285 283 282 281 280 279 275 272 270 267 266 265 263 262
300 301 295 294 297 297 297 297 297 297 294 292 293 293 291 291 290 289 288 287 287 286 287 287 286 285 286 286 286 285 284 281 279 280 278 275 273 269 266 265 265 264 263
298 299 300 298 299 299 298 299 296 295 293 291 292 292 292 291 291 291 289 286 287 287 287 287 285 285 285 284 283 283 283 280 278 278 277 275 274 269 266 265 264 264 263
299 298 297 297 298 299 298 295 294 293 294 293 293 294 292 291 291 292 291 291 291 288 287 286 285 285 284 283 282 282 281 278 276 276 276 275 274 270 266 264 263 263 263
299 298 298 298 298 298 296 293 292 293 293 293 293 294 294 293 292 293 293 292 293 290 290 288 285 285 282 283 281 281 279 277 275 274 274 273 272 271 267 264 263 262 262
294 296 295 295 294 294 293 293 292 292 292 295 294 293 294 294 295 294 294 293 294 292 291 289 286 285 283 281 280 280 279 277 276 275 274 272 271 270 268 266 264 263 263
291 293 292 290 291 293 293 293 293 293 293 295 295 294 295 296 296 295 295 294 293 293 293 292 290 289 287 283 280 278 279 279 280 278 276 274 272 271 270 268 265 264 263
290 290 290 289 291 292 290 290 292 293 293 295 294 295 296 296 297 297 296 294 293 292 293 293 293 291 288 286 282 279 279 279 279 279 279 276 273 270 269 270 267 264 263
290 290 290 291 292 291 288 289 293 293 294 295 295 294 295 296 297 298 297 296 295 294 295 295 295 291 290 287 284 281 280 280 280 280 278 276 274 270 268 268 268 266 264
291 292 291 291 290 289 290 291 293 294 295 298 299 297 296 297 298 298 297 297 296 296 296 296 295 293 291 288 286 283 282 281 281 281 278 276 274 271 269 270 268 267 265
294 293 292 291 292 292 292 293 294 293 293 295 297 297 297 298 298 298 298 298 297 297 296 296 295 294 292 291 289 286 282 281 282 280 278 277 275 275 274 273 272 269 267
293 293 293 294 297 297 293 292 293 294 292 293 296 297 298 299 299 301 301 300 299 298 296 294 294 293 293 292 291 288 283 281 282 282 280 279 278 277 276 275 272 271 269
292 295 295 297 298 296 294 294 296 296 292 296 297 298 299 299 299 299 299 301 300 299 297 294 292 292 292 291 291 291 287 284 283 282 282 282 282 280 278 276 274 272 269
293 296 295 296 296 296 297 295 294 295 295 299 298 298 298 299 299 299 300 302 302 300 298 296 294 293 292 290 290 290 288 287 287 285 282 282 283 282 280 278 276 273 271
295 295 294 295 295 296 296 294 294 296 298 300 299 299 298 299 300 300 300 301 301 300 299 297 297 294 295 292 290 290 289 290 290 288 285 283 284 283 282 280 278 275 274
Height
5885 5885 5885 5885 5884 5884 5883 5883 5882 5882 5882 5882 5882 5881 5881 5881 5881 5880 5880 5880 5879 5879 5879 5878 5878 5877 5877 5876 5876 5875 5875 5874 5874 5874 5874 5873 5873 5874 5874 5874 5874 5875 5875
5885 5885 5884 5884 5884 5883 5882 5881 5881 5881 5880 5880 5880 5880 5879 5879 5879 5878 5878 5877 5877 5877 5876 5876 5875 5875 5874 5874 5873 5872 5872 5872 5871 5871 5871 5871 5871 5871 5871 5872 5872 5872 5873
5884 5883 5883 5883 5882 5882 5881 5880 5879 5879 5879 5878 5878 5878 5877 5877 5876 5876 5875 5875 5874 5874 5873 5873 5872 5872 5871 5871 5870 5869 5869 5869 5868 5868 5868 5868 5868 5868 5868 5869 5869 5870 5870
5883 5882 5882 5881 5880 5880 5879 5878 5878 5877 5876 5876 5875 5875 5875 5874 5874 5873 5873 5872 5871 5871 5870 5870 5869 5869 5868 5868 5867 5866 5866 5865 5865 5865 5865 5865 5865 5865 5865 5866 5866 5866 5867
5881 5881 5880 5879 5878 5878 5877 5877 5876 5875 5874 5874 5873 5872 5872 5871 5871 5870 5870 5869 5869 5868 5867 5867 5866 5866 5865 5864 5864 5863 5862 5862 5862 5862 5861 5861 5861 5862 5862 5862 5863 5863 5864
5879 5879 5878 5877 5877 5876 5875 5874 5874 5873 5872 5871 5871 5870 5869 5868 5868 5867 5867 5866 5865 5865 5864 5863 5863 5862 5861 5861 5860 5859 5858 5858 5858 5858 5857 5857 5857 5858 5858 5858 5859 5859 5860
5877 5877 5876 5875 5875 5874 5873 5872 5872 5871 5870 5869 5868 5867 5866 5866 5865 5864 5864 5863 5862 5861 5860 5860 5859 5858 5857 5857 5856 5855 5855 5854 5854 5853 5853 5853 5853 5853 5854 5854 5855 5855 5856
5875 5875 5874 5873 5872 5871 5871 5870 5869 5869 5868 5867 5866 5865 5864 5863 5862 5861 5860 5859 5858 5857 5856 5855 5854 5853 5853 5852 5851 5850 5850 5850 5849 5849 5849 5848 5849 5849 5849 5849 5850 5851 5852
5873 5872 5871 5870 5869 5869 5868 5868 5867 5866 5865 5864 5863 5862 5861 5860 5858 5857 5856 5855 5854 5853 5852 5851 5850 5849 5848 5847 5846 5846 5845 5845 5844 5844 5844 5844 5844 5844 5844 5845 5845 5846 5847
5870 5870 5869 5868 5867 5866 5866 5865 5864 5863 5862 5861 5860 5858 5858 5856 5855 5853 5852 5852 5850 5849 5848 5847 5845 5844 5843 5842 5841 5841 5840 5840 5839 5839 5839 5838 5838 5839 5839 5839 5840 5841 5841
5867 5867 5866 5866 5865 5863 5863 5862 5861 5860 5859 5858 5857 5855 5854 5853 5851 5850 5848 5847 5846 5845 5843 5842 5841 5840 5838 5837 5836 5835 5835 5834 5834 5833 5833 5833 5833 5833 5833 5834 5834 5835 5836
5865 5864 5863 5863 5862 5861 5860 5859 5858 5857 5855 5854 5853 5852 5851 5849 5847 5846 5844 5843 5841 5840 5839 5837 5836 5834 5833 5832 5831 5830 5829 5828 5828 5828 5827 5827 5827 5828 5828 5828 5829 5830 5830
5862 5861 5860 5859 5859 5858 5856 5855 5854 5853 5852 5850 5849 5848 5846 5845 5843 5841 5840 5838 5836 5835 5834 5832 5830 5829 5828 5826 5825 5824 5824 5823 5822 5822 5822 5821 5821 5821 5822 5822 5823 5824 5824
5859 5858 5857 5856 5855 5854 5852 5852 5850 5849 5848 5847 5845 5843 5842 5840 5839 5837 5835 5833 5832 5830 5828 5827 5825 5824 5822 5821 5820 5819 5817 5816 5816 5816 5815 5815 5815 5815 5816 5816 5817 5817 5818
5856 5855 5853 5853 5852 5850 5849 5848 5847 5846 5844 5842 5840 5839 5837 5835 5834 5832 5830 5828 5826 5824 5823 5821 5819 5817 5816 5815 5813 5813 5811 5810 5810 5809 5809 5809 5808 5808 5809 5809 5810 5810 5811
5852 5851 5850 5848 5848 5847 5845 5845 5843 5842 5840 5838 5836 5834 5832 5830 5829 5827 5825 5823 5821 5819 5817 5815 5813 5811 5809 5808 5807 5806 5805 5804 5803 5802 5802 5802 5802 5802 5802 5802 5803 5803 5804
5848 5847 5846 5844 5843 5842 5841 5840 5839 5837 5835 5833 5831 5829 5827 5826 5824 5822 5820 5817 5815 5813 5811 5808 5806 5803 5802 5801 5799 5799 5798 5797 5796 5795 5795 5795 5795 5795 5795 5795 5796 5796 5797
5845 5843 5842 5840 5839 5838 5837 5835 5834 5832 5830 5829 5827 5824 5822 5821 5819 5816 5814 5812 5810 5807 5805 5802 5800 5798 5796 5794 5793 5792 5791 5790 5789 5788 5788 5787 5787 5787 5787 5787 5788 5788 5789
5840 5839 5838 5836 5834 5833 5832 5831 5829 5827 5825 5823 5821 5820 5817 5815 5813 5810 5808 5806 5803 5801 5799 5796 5794 5791 5789 5787 5786 5784 5784 5783 5782 5781 5780 5780 5780 5780 5780 5779 5780 5780 5781
5836 5835 5833 5831 5830 5828 5827 5826 5824 5822 5820 5818 5816 5814 5812 5810 5807 5804 5802 5799 5797 5794 5792 5789 5787 5785 5782 5780 5779 5777 5776 5775 5774 5774 5773 5772 5772 5771 5771 5771 5771 5771 5772
5831 5829 5827 5826 5825 5824 5822 5821 5819 5817 5815 5813 5811 5808 5806 5804 5801 5798 5796 5793 5790 5787 5785 5782 5780 5777 5775 5773 5772 5771 5770 5768 5767 5766 5765 5765 5764 5763 5763 5763 5763 5763 5763
5826 5824 5822 5820 5818 5818 5817 5815 5813 5811 5809 5807 5805 5802 5800 5797 5795 5792 5789 5786 5783 5780 5778 5775 5773 5771 5769 5767 5766 5764 5763 5762 5760 5759 5758 5757 5757 5756 5756 5755 5755 5755 5755
5821 5819 5816 5815 5813 5812 5811 5809 5807 5805 5803 5801 5799 5797 5794 5791 5788 5785 5782 5779 5776 5773 5771 5768 5766 5764 5762 5760 5759 5758 5757 5756 5754 5752 5751 5750 5749 5748 5748 5748 5747 5747 5747
5816 5814 5812 5810 5809 5807 5805 5804 5802 5800 5798 5796 5793 5791 5788 5785 5782 5779 5776 5773 5769 5766 5764 5762 5759 5758 5756 5754 5752 5751 5750 5748 5747 5746 5744 5743 5742 5741 5740 5740 5739 5739 5739
5810 5809 5807 5806 5804 5802 5800 5798 5796 5794 5792 5790 5788 5785 5782 5779 5776 5773 5770 5767 5763 5761 5758 5756 5754 5752 5750 5748 5746 5745 5743 5741 5740 5740 5739 5737 5735 5734 5733 5732 5731 5731 5730
5806 5804 5802 5800 5798 5796 5795 5793 5791 5789 5787 5785 5782 5778 5775 5772 5770 5767 5763 5761 5758 5755 5752 5750 5748 5746 5744 5742 5740 5739 5737 5736 5734 5733 5732 5730 5729 5727 5726 5725 5724 5723 5722